Location: Tel Aviv
(32.0670°N, 34.7670°E)
Time: 01:24:53
(UTC+02:00)

Transit 4A - Pass Details

Date: 09 December 2023
Orbit: 869 x 974 km, 66.8° (Epoch: 23 February)

Event Time Altitude Azimuth Distance (km) Brightness Sun altitude
Rises 18:49:40 0° 221° (SW) 3,652 11.8 -27.5°
Reaches altitude 10° 18:52:21 10° 227° (SW) 2,710 11.0 -28.1°
Maximum altitude 18:58:24 46° 300° (WNW) 1,285 8.8 -29.3°
Enters shadow 19:01:07 30° 353° (N) 1,672 9.1 -29.9°
